Weather History for KHCD - November, 2011

Change the Weather History Date:

Sunday, November 20, 2011

  Actual Average Record
Temperature  
Mean Temperature 14 °F -  
Max Temperature 24 °F 37 °F 63 °F (1962)
Min Temperature 3 °F 22 °F -2 °F (2014)
Degree Days  
Heating Degree Days 52    
Moisture  
Dew Point 11 °F    
Average Humidity 80    
Maximum Humidity 89    
Minimum Humidity 66    
Precipitation  
Precipitation 0.00 in - - ()
Sea Level Pressure  
Sea Level Pressure 30.29 in    
Wind  
Wind Speed 5 mph (WNW)    
Max Wind Speed 14 mph    
Max Gust Speed -    
Visibility 10 miles    
Events      
Averages and records for this station are not official NWS values.
T = Trace of Precipitation, MM = Missing Value Source: NWS Daily Summary

Daily Weather History Graph

Daily Weather History Graph

Search for Another Location

Airport or City:

Trip Planner

Search our weather history database for the weather conditions in past years. The results will help you decide how hot, cold, wet, or windy it might be!

Date:

Astronomy

Nov. 20, 2011 Rise Set
Actual Time 7:21 AM CST 4:44 PM CST
Civil Twilight 6:49 AM CST 5:16 PM CST
Nautical Twilight 6:13 AM CST 5:52 PM CST
Astronomical Twilight 5:38 AM CST 6:27 PM CST
Moon 1:38 AM CST (11/20) 1:45 PM CST (11/20)
Length of Visible Light 10h 27m
Length of Day
9h 23m
Waning Crescent, 27% of the Moon is Illuminated
Nov 20
Waning Crescent
Nov 25
New
Dec 2
First Quarter
Dec 10
Full
Dec 17
Last Quarter

Hourly Weather History & Observations

Time (CST) Temp. Windchill Dew Point Humidity Pressure Visibility Wind Dir Wind Speed Gust Speed Precip Events Conditions
12:15 AM 21.2 °F 8.9 °F 15.8 °F 80% 30.18 in 10.0 mi NNW 12.7 mph - N/A   Mostly Cloudy
12:30 AM 21.2 °F 8.3 °F 15.8 °F 80% 30.18 in 10.0 mi NNW 13.8 mph - N/A   Overcast
12:53 AM 22.1 °F 12.8 °F 16.7 °F 80% 30.19 in 10.0 mi NW 8.1 mph - N/A   Overcast
1:33 AM 21.0 °F 10.6 °F 15.1 °F 78% 30.19 in 10.0 mi NNW 9.2 mph - N/A   Overcast
1:53 AM 20.8 °F 10.4 °F 15.4 °F 80% 30.19 in 10.0 mi NNW 9.2 mph - N/A   Overcast
2:13 AM 20.3 °F 11.5 °F 14.7 °F 79% 30.19 in 10.0 mi NNW 6.9 mph - N/A   Overcast
2:33 AM 19.4 °F 9.5 °F 14.0 °F 80% 30.20 in 10.0 mi NNW 8.1 mph - N/A   Overcast
2:53 AM 19.4 °F 9.5 °F 14.4 °F 81% 30.21 in 10.0 mi NNW 8.1 mph - N/A   Mostly Cloudy
3:12 AM 17.1 °F 6.6 °F 12.0 °F 81% 30.21 in 10.0 mi NNW 8.1 mph - N/A   Scattered Clouds
3:33 AM 16.0 °F 10.4 °F 11.5 °F 82% 30.23 in 10.0 mi WNW 3.5 mph - N/A   Scattered Clouds
4:12 AM 14.5 °F 7.1 °F 10.4 °F 84% 30.24 in 10.0 mi West 4.6 mph - N/A   Mostly Cloudy
4:33 AM 14.5 °F 7.1 °F 10.4 °F 84% 30.25 in 10.0 mi WNW 4.6 mph - N/A   Scattered Clouds
4:52 AM 14.5 °F 3.6 °F 10.6 °F 84% 30.25 in 10.0 mi NW 8.1 mph - N/A   Clear
6:33 AM 9.5 °F - 6.6 °F 88% 30.26 in 10.0 mi Calm Calm - N/A   Clear
6:53 AM 9.5 °F - 6.3 °F 87% 30.26 in 10.0 mi Calm Calm - N/A   Clear
7:12 AM 5.4 °F - 1.9 °F 86% 30.28 in 10.0 mi Calm Calm - N/A   Clear
7:32 AM 3.6 °F - 0.1 °F 86% 30.28 in 10.0 mi Calm Calm - N/A   Clear
7:53 AM 3.6 °F - -0.0 °F 85% 30.30 in 10.0 mi Calm Calm - N/A   Clear
8:12 AM 4.6 °F -6.0 °F 1.2 °F 86% 30.31 in 10.0 mi WSW 5.8 mph - N/A   Clear
8:33 AM 8.2 °F 1.6 °F 5.2 °F 87% 30.32 in 10.0 mi West 3.5 mph - N/A   Clear
8:53 AM 11.3 °F - 8.1 °F 87% 30.33 in 10.0 mi Calm Calm - N/A   Clear
9:12 AM 14.5 °F 8.8 °F 11.3 °F 87% 30.34 in 10.0 mi West 3.5 mph - N/A   Clear
9:32 AM 15.6 °F 10.0 °F 11.8 °F 85% 30.34 in 10.0 mi West 3.5 mph - N/A   Clear
9:53 AM 15.8 °F 10.2 °F 10.4 °F 79% 30.35 in 10.0 mi West 3.5 mph - N/A   Scattered Clouds
10:12 AM 17.2 °F 10.2 °F 11.3 °F 78% 30.35 in 10.0 mi WSW 4.6 mph - N/A   Scattered Clouds
10:32 AM 19.4 °F 12.8 °F 13.1 °F 76% 30.36 in 10.0 mi West 4.6 mph - N/A   Clear
10:53 AM 19.6 °F 13.0 °F 12.7 °F 75% 30.36 in 10.0 mi West 4.6 mph - N/A   Clear
11:13 AM 21.0 °F 16.2 °F 13.5 °F 73% 30.36 in 10.0 mi West 3.5 mph - N/A   Clear
11:32 AM 21.9 °F - 14.0 °F 72% 30.35 in 10.0 mi Calm Calm - N/A   Clear
11:53 AM 22.1 °F - 14.2 °F 72% 30.35 in 10.0 mi Calm Calm - N/A   Clear
12:12 PM 22.3 °F 17.6 °F 14.5 °F 72% 30.34 in 10.0 mi WSW 3.5 mph - N/A   Clear
12:53 PM 23.2 °F 15.0 °F 13.8 °F 67% 30.33 in 10.0 mi West 6.9 mph - N/A   Clear
1:13 PM 24.4 °F 14.9 °F 14.7 °F 67% 30.33 in 10.0 mi WNW 9.2 mph - N/A   Clear
1:33 PM 23.5 °F 16.4 °F 14.2 °F 67% 30.33 in 10.0 mi WNW 5.8 mph - N/A   Clear
1:52 PM 24.4 °F 16.5 °F 14.7 °F 67% 30.32 in 10.0 mi NW 6.9 mph - N/A   Clear
2:12 PM 24.1 °F 16.0 °F 14.2 °F 66% 30.32 in 10.0 mi NNW 6.9 mph - N/A   Clear
2:32 PM 23.9 °F - 14.0 °F 66% 30.31 in 10.0 mi Calm Calm - N/A   Clear
2:53 PM 23.4 °F - 13.8 °F 67% 30.30 in 10.0 mi Calm Calm - N/A   Clear
3:12 PM 23.4 °F - 13.5 °F 66% 30.30 in 10.0 mi Calm Calm - N/A   Clear
3:33 PM 23.4 °F 18.9 °F 13.6 °F 66% 30.31 in 10.0 mi East 3.5 mph - N/A   Clear
3:53 PM 23.0 °F - 13.6 °F 67% 30.31 in 10.0 mi Calm Calm - N/A   Clear
4:13 PM 22.1 °F - 13.5 °F 69% 30.31 in 10.0 mi Calm Calm - N/A   Clear
4:32 PM 20.8 °F - 13.1 °F 72% 30.31 in 10.0 mi Calm Calm - N/A   Clear
4:53 PM 19.9 °F - 12.9 °F 74% 30.30 in 10.0 mi Calm Calm - N/A   Clear
5:13 PM 19.4 °F - 13.5 °F 78% 30.31 in 10.0 mi Calm Calm - N/A   Clear
5:33 PM 17.1 °F - 12.2 °F 81% 30.31 in 10.0 mi Calm Calm - N/A   Clear
6:13 PM 12.0 °F - 8.2 °F 85% 30.31 in 10.0 mi Calm Calm - N/A   Clear
6:32 PM 14.5 °F - 11.3 °F 87% 30.30 in 10.0 mi Calm Calm - N/A   Clear
6:53 PM 12.0 °F - 8.6 °F 86% 30.30 in 10.0 mi Calm Calm - N/A   Clear
7:32 PM 12.0 °F - 9.0 °F 88% 30.29 in 10.0 mi Calm Calm - N/A   Clear
7:53 PM 12.2 °F - 9.3 °F 88% 30.28 in 10.0 mi Calm Calm - N/A   Clear
8:13 PM 12.0 °F - 8.6 °F 86% 30.27 in 10.0 mi Calm Calm - N/A   Clear
8:33 PM 9.5 °F - 6.6 °F 88% 30.27 in 10.0 mi Calm Calm - N/A   Clear
8:53 PM 9.5 °F - 6.6 °F 88% 30.27 in 10.0 mi Calm Calm - N/A   Clear
9:12 PM 12.0 °F 5.9 °F 9.1 °F 88% 30.27 in 10.0 mi SE 3.5 mph - N/A   Clear
9:33 PM 10.4 °F - 7.3 °F 87% 30.28 in 10.0 mi Calm Calm - N/A   Clear
9:52 PM 10.0 °F - 7.2 °F 88% 30.28 in 10.0 mi Calm Calm - N/A   Clear
10:12 PM 9.9 °F - 6.6 °F 87% 30.28 in 10.0 mi Calm Calm - N/A   Clear
10:33 PM 9.5 °F - 5.9 °F 85% 30.28 in 10.0 mi Calm Calm - N/A   Clear
10:53 PM 10.0 °F - 7.3 °F 89% 30.27 in 10.0 mi Calm Calm - N/A   Clear
11:13 PM 9.5 °F - 6.1 °F 86% 30.28 in 10.0 mi Calm Calm - N/A   Clear
11:32 PM 9.5 °F - 6.4 °F 87% 30.28 in 10.0 mi Calm Calm - N/A   Clear
11:53 PM 6.8 °F - 3.2 °F 85% 30.29 in 10.0 mi Calm Calm - N/A   Clear